Weather History for KADH - June, 2014

Change the Weather History Date:

Sunday, June 8, 2014

  Actual Average Record
Temperature  
Mean Temperature 68 °F -  
Max Temperature 73 °F 86 °F 99 °F (1911)
Min Temperature 62 °F 64 °F 53 °F (1930)
Cooling Degree Days 2    
Growing Degree Days 18 (Base 50)    
Moisture  
Dew Point 67 °F    
Average Humidity 95    
Maximum Humidity 100    
Minimum Humidity 78    
Precipitation  
Precipitation 2.09 in - - ()
Sea Level Pressure  
Sea Level Pressure 29.92 in    
Wind  
Wind Speed 5 mph (ENE)    
Max Wind Speed 15 mph    
Max Gust Speed -    
Visibility 9 miles    
Events Rain , Thunderstorm    
Averages and records for this station are not official NWS values.
T = Trace of Precipitation, MM = Missing Value Source: NWS Daily Summary

Daily Weather History Graph

Daily Weather History Graph

Search for Another Location

Airport or City:

Trip Planner

Search our weather history database for the weather conditions in past years. The results will help you decide how hot, cold, wet, or windy it might be!

Date:

Astronomy

Jun. 08, 2014 Rise Set
Actual Time 6:12 AM CDT 8:38 PM CDT
Civil Twilight 5:43 AM CDT 9:08 PM CDT
Nautical Twilight 5:07 AM CDT 9:44 PM CDT
Astronomical Twilight 4:27 AM CDT 10:24 PM CDT
Moon 4:07 PM CDT (6/8) 2:55 AM CDT (6/8)
Length of Visible Light 15h 24m
Length of Day
14h 25m
Waxing Gibbous, 77% of the Moon is Illuminated
Jun 8
Waxing Gibbous
Jun 12
Full
Jun 19
Last Quarter
Jun 27
New
Jul 5
First Quarter

Hourly Weather History & Observations

Time (CDT) Temp. Dew Point Humidity Pressure Visibility Wind Dir Wind Speed Gust Speed Precip Events Conditions
12:15 AM 68.0 °F 68.0 °F 100% 29.91 in 10.0 mi NE 3.5 mph - N/A   Clear
12:35 AM 69.8 °F 69.8 °F 100% 29.93 in 10.0 mi NE 5.8 mph - N/A   Mostly Cloudy
12:55 AM 68.0 °F 68.0 °F 100% 29.93 in 10.0 mi NE 4.6 mph - N/A   Mostly Cloudy
1:15 AM 68.0 °F 68.0 °F 100% 29.92 in 10.0 mi ESE 5.8 mph - N/A   Scattered Clouds
1:35 AM 68.0 °F 68.0 °F 100% 29.92 in 10.0 mi ENE 4.6 mph - 0.02 in Rain Light Rain
1:55 AM 68.0 °F 68.0 °F 100% 29.91 in 10.0 mi NNE 6.9 mph - 0.02 in Rain , Thunderstorm Light Thunderstorms and Rain
2:15 AM 68.0 °F 68.0 °F 100% 29.91 in 10.0 mi East 10.4 mph - 0.01 in Rain , Thunderstorm Light Thunderstorms and Rain
2:35 AM 68.0 °F 68.0 °F 100% 29.91 in 10.0 mi NNE 5.8 mph - 0.01 in   Scattered Clouds
2:55 AM 68.0 °F 68.0 °F 100% 29.91 in 10.0 mi NE 8.1 mph - 0.01 in Thunderstorm Mostly Cloudy
3:15 AM 68.0 °F 68.0 °F 100% 29.90 in 10.0 mi Calm Calm - N/A Thunderstorm Overcast
3:35 AM 68.0 °F 68.0 °F 100% 29.90 in 10.0 mi NE 8.1 mph - N/A   Overcast
3:55 AM 68.0 °F 68.0 °F 100% 29.90 in 10.0 mi ENE 6.9 mph - 0.02 in Rain Rain
4:15 AM 68.0 °F 68.0 °F 100% 29.90 in 5.0 mi NE 10.4 mph - 0.08 in Rain , Thunderstorm Rain
4:35 AM 68.0 °F 68.0 °F 100% 29.95 in 5.0 mi ENE 6.9 mph - 0.16 in Rain , Thunderstorm Heavy Thunderstorms and Rain
4:55 AM 64.4 °F 64.4 °F 100% 29.96 in 1.8 mi NE 11.5 mph - 0.33 in Rain , Thunderstorm Heavy Thunderstorms and Rain
5:15 AM 64.4 °F 64.4 °F 100% 29.96 in 2.0 mi North 15.0 mph - 0.24 in Rain , Thunderstorm Heavy Thunderstorms and Rain
5:35 AM 64.4 °F 64.4 °F 100% 29.99 in 3.0 mi NNW 8.1 mph - 0.51 in Rain , Thunderstorm Heavy Thunderstorms and Rain
5:55 AM 64.4 °F 64.4 °F 100% 29.96 in 7.0 mi NE 4.6 mph - 0.79 in Rain , Thunderstorm Thunderstorms and Rain
6:15 AM 62.6 °F 62.6 °F 100% 30.00 in 10.0 mi West 5.8 mph - 0.23 in Rain , Thunderstorm Light Thunderstorms and Rain
6:35 AM 62.6 °F 62.6 °F 100% 29.99 in 7.0 mi West 3.5 mph - 0.39 in Rain Rain
6:55 AM 62.6 °F 62.6 °F 100% 30.00 in 7.0 mi Calm Calm - 0.49 in Rain , Thunderstorm Thunderstorms and Rain
7:15 AM 62.6 °F 62.6 °F 100% 29.99 in 4.0 mi North 3.5 mph - 0.08 in Rain , Thunderstorm Thunderstorms and Rain
7:35 AM 62.6 °F 62.6 °F 100% 29.99 in 5.0 mi East 4.6 mph - 0.15 in Rain Heavy Rain
7:55 AM 62.6 °F 62.6 °F 100% 29.99 in 5.0 mi ESE 9.2 mph - 0.23 in Rain Heavy Rain
8:15 AM 62.6 °F 62.6 °F 100% 29.94 in 7.0 mi East 3.5 mph - 0.07 in Rain Rain
8:35 AM 66.2 °F 66.2 °F 100% 29.97 in 10.0 mi ESE 10.4 mph - 0.11 in Rain Rain
8:55 AM 64.4 °F 64.4 °F 100% 29.99 in 10.0 mi ESE 8.1 mph - 0.13 in Rain Light Rain
9:15 AM 64.4 °F 64.4 °F 100% 29.98 in 10.0 mi SE 5.8 mph - 0.02 in Rain Rain
9:35 AM 64.4 °F 64.4 °F 100% 29.99 in 10.0 mi SSE 5.8 mph - 0.05 in Rain Light Rain
9:55 AM 64.4 °F 64.4 °F 100% 29.97 in 10.0 mi ESE 3.5 mph - 0.05 in Rain Rain
10:15 AM 66.2 °F 66.2 °F 100% 29.95 in 10.0 mi East 4.6 mph - 0.01 in Rain Light Rain
10:35 AM 66.2 °F 66.2 °F 100% 29.95 in 10.0 mi ENE 5.8 mph - 0.01 in Rain Light Rain
10:55 AM 68.0 °F 68.0 °F 100% 29.95 in 10.0 mi ESE 6.9 mph - 0.01 in Rain Light Rain
11:15 AM 68.0 °F 68.0 °F 100% 29.96 in 10.0 mi ESE 9.2 mph - N/A   Overcast
11:35 AM 68.0 °F 68.0 °F 100% 29.95 in 10.0 mi ENE 5.8 mph - N/A   Mostly Cloudy
11:55 AM 69.8 °F 68.0 °F 94% 29.94 in 10.0 mi ENE 8.1 mph - N/A   Scattered Clouds
12:15 PM 69.8 °F 66.2 °F 88% 29.94 in 10.0 mi East 10.4 mph - N/A   Mostly Cloudy
12:35 PM 69.8 °F 68.0 °F 94% 29.95 in 10.0 mi ESE 9.2 mph - N/A   Overcast
12:55 PM 69.8 °F 68.0 °F 94% 29.94 in 10.0 mi East 5.8 mph - N/A   Overcast
1:15 PM 69.8 °F 68.0 °F 94% 29.94 in 10.0 mi East 5.8 mph - N/A   Overcast
1:35 PM 71.6 °F 68.0 °F 88% 29.94 in 10.0 mi East 6.9 mph - N/A   Overcast
1:55 PM 71.6 °F 68.0 °F 88% 29.93 in 10.0 mi ENE 6.9 mph - N/A   Overcast
2:15 PM 71.6 °F 68.0 °F 88% 29.93 in 10.0 mi East 4.6 mph - N/A   Mostly Cloudy
2:35 PM 71.6 °F 68.0 °F 88% 29.93 in 10.0 mi East 6.9 mph - N/A   Mostly Cloudy
2:55 PM 73.4 °F 68.0 °F 83% 29.92 in 10.0 mi ENE 3.5 mph - N/A   Mostly Cloudy
3:15 PM 73.4 °F 66.2 °F 78% 29.92 in 10.0 mi Calm Calm - N/A   Mostly Cloudy
3:35 PM 73.4 °F 68.0 °F 83% 29.90 in 10.0 mi East 4.6 mph - N/A   Overcast
3:55 PM 73.4 °F 68.0 °F 83% 29.89 in 10.0 mi East 5.8 mph - N/A   Overcast
4:15 PM 73.4 °F 68.0 °F 83% 29.90 in 10.0 mi East 4.6 mph - N/A   Overcast
4:35 PM 71.6 °F 68.0 °F 88% 29.89 in 10.0 mi Calm Calm - N/A   Overcast
4:55 PM 71.6 °F 68.0 °F 88% 29.89 in 10.0 mi East 3.5 mph - N/A   Overcast
5:15 PM 73.4 °F 68.0 °F 83% 29.88 in 10.0 mi Calm Calm - N/A   Overcast
5:35 PM 73.4 °F 68.0 °F 83% 29.88 in 10.0 mi NNE 6.9 mph - N/A   Overcast
5:55 PM 73.4 °F 68.0 °F 83% 29.87 in 10.0 mi NNE 5.8 mph - N/A   Mostly Cloudy
6:15 PM 73.4 °F 69.8 °F 88% 29.87 in 10.0 mi North 6.9 mph - N/A   Scattered Clouds
6:35 PM 73.4 °F 69.8 °F 88% 29.86 in 10.0 mi NE 3.5 mph - 0.01 in   Scattered Clouds
6:55 PM 71.6 °F 68.0 °F 88% 29.85 in 10.0 mi NE 3.5 mph - 0.01 in   Scattered Clouds
7:15 PM 71.6 °F 68.0 °F 88% 29.85 in 10.0 mi NNE 4.6 mph - N/A   Clear
7:35 PM 71.6 °F 69.8 °F 94% 29.85 in 10.0 mi NNE 4.6 mph - N/A   Clear
7:55 PM 71.6 °F 69.8 °F 94% 29.86 in 10.0 mi NE 3.5 mph - N/A   Clear
8:15 PM 69.8 °F 68.0 °F 94% 29.86 in 10.0 mi ENE 3.5 mph - N/A   Clear
8:35 PM 69.8 °F 68.0 °F 94% 29.86 in 10.0 mi NE 3.5 mph - N/A   Clear
8:55 PM 69.8 °F 68.0 °F 94% 29.85 in 10.0 mi NE 3.5 mph - N/A   Clear
9:15 PM 68.0 °F 68.0 °F 100% 29.85 in 10.0 mi NE 3.5 mph - N/A   Clear
9:35 PM 68.0 °F 68.0 °F 100% 29.86 in 10.0 mi NE 3.5 mph - N/A   Clear
9:55 PM 68.0 °F 68.0 °F 100% 29.87 in 10.0 mi Calm Calm - N/A   Clear
10:15 PM 68.0 °F 68.0 °F 100% 29.88 in 7.0 mi Calm Calm - N/A   Clear
10:35 PM 66.2 °F 66.2 °F 100% 29.88 in 10.0 mi Calm Calm - N/A   Clear
10:55 PM 66.2 °F 66.2 °F 100% 29.90 in 10.0 mi Calm Calm - N/A   Mostly Cloudy
11:15 PM 68.0 °F 68.0 °F 100% 29.90 in 10.0 mi ENE 3.5 mph - N/A   Overcast
11:35 PM 68.0 °F 68.0 °F 100% 29.89 in 10.0 mi ENE 3.5 mph - N/A   Mostly Cloudy
11:55 PM 68.0 °F 68.0 °F 100% 29.88 in 10.0 mi East 3.5 mph - N/A   Mostly Cloudy